Regional Weather Roundup
Issued by NWS Little Rock, AR

Home | Current Version | Previous Version | Graphics & Text | Print | Product List | Glossary On
Versions: 1 2 3 4 5 6 7 8 9 10 11 12 13 14 15 16 17 18 19 20 21 22 23 24 25 26 27
000
ASUS44 KLZK 021805
RWRLZK

WEATHER ROUNDUP FOR ARKANSAS
NATIONAL WEATHER SERVICE LITTLE ROCK AR
100 PM CDT MON MAY 02 2016

NOTE: "FAIR" INDICATES FEW OR NO CLOUDS BELOW 12,000 FEET WITH NO
SIGNIFICANT WEATHER AND/OR OBSTRUCTIONS TO VISIBILITY.

ARZ001-003-010-029-021900-
NORTHWEST ARKANSAS

CITY           SKY/WX    TMP DP  RH WIND       PRES   REMARKS
FAYETTEVILLE   CLOUDY    56  49  77 NW8       30.08F
6HR MIN TEMP:  50; 6HR MAX TEMP:  57;

FORT SMITH     CLOUDY    64  49  57 VRB3      30.08F
6HR MIN TEMP:  53; 6HR MAX TEMP:  64;

HARRISON       CLOUDY    56  48  74 VRB6      30.09F
6HR MIN TEMP:  50; 6HR MAX TEMP:  56;

BENTONVILLE    CLOUDY    55  45  67 NW8       30.10F
6HR MIN TEMP:  52; 6HR MAX TEMP:  57;

ROGERS         CLOUDY    55  48  77 NW8       30.10F
6HR MIN TEMP:  51; 6HR MAX TEMP:  56;

SILOAM SPGS    CLOUDY    55  43  62 NW12      30.11F
6HR MIN TEMP:  52; 6HR MAX TEMP:  57;

HIGHFILL       CLOUDY    57  50  77 NW9       30.09F
6HR MIN TEMP:  51; 6HR MAX TEMP:  58;

SPRINGDALE     CLOUDY    57  48  72 NW7       30.10F
$$

ARZ004-005-016-021900-
NORTH CENTRAL ARKANSAS

CITY           SKY/WX    TMP DP  RH WIND       PRES   REMARKS
BATESVILLE     CLOUDY    64  52  63 SW3       30.05F
6HR MIN TEMP:  55; 6HR MAX TEMP:  64;

FLIPPIN        CLOUDY   N/A N/A N/A W9        30.05F
MTN HOME       CLOUDY    61  48  62 VRB7      30.06F
6HR MIN TEMP:  49; 6HR MAX TEMP:  61;

$$

ARZ040-041-021900-
WEST CENTRAL ARKANSAS

CITY           SKY/WX    TMP DP  RH WIND       PRES   REMARKS
MENA           CLOUDY    63  54  72 N5        30.07F
MOUNT IDA      CLOUDY    62  52  69 CALM      30.04F
6HR MIN TEMP:  54; 6HR MAX TEMP:  62;

$$

ARZ009-017-025-026-028-021900-
NORTHEAST ARKANSAS

CITY           SKY/WX    TMP DP  RH WIND       PRES   REMARKS
CORNING          N/A     64  54  68 NW5       30.04F
JONESBORO      CLOUDY    66  54  65 E6        30.03F
6HR MIN TEMP:  57; 6HR MAX TEMP:  67; 6HR PCP:  0.02;

NEWPORT        PTSUNNY   64  52  65 E3        30.06F
6HR MIN TEMP:  56; 6HR MAX TEMP:  66; 6HR PCP: TRACE;

WALNUT RIDGE   CLOUDY    64  48  55 W5        30.04F
6HR MIN TEMP:  55; 6HR MAX TEMP:  64;

BLYTHEVILLE    CLOUDY    65  56  72 NE6       30.02F
6HR MIN TEMP:  57; 6HR MAX TEMP:  65; 6HR PCP:  0.11;

NW BLYTHEVILLE PTSUNNY   64  54  68 NE5       30.03S
$$

ARZ022-023-033-042-044-021900-
CENTRAL ARKANSAS

CITY           SKY/WX    TMP DP  RH WIND       PRES   REMARKS
LITTLE ROCK    LGT RAIN  65  53  65 E5        30.05F
6HR MIN TEMP:  57; 6HR MAX TEMP:  66; 6HR PCP:  0.03;

N LITTLE ROCK    N/A     62  54  74 CALM      30.04F
6HR MIN TEMP:  54; 6HR MAX TEMP:  64;

JACKSONVILLE   DRIZZLE   64  53  68 VRB3      30.04
6HR MIN TEMP:  55; 6HR MAX TEMP:  65; 6HR PCP:  0.01;

SEARCY         PTSUNNY   65  54  67 S3        30.06F
6HR MIN TEMP:  55; 6HR MAX TEMP:  67; 6HR PCP: TRACE;

HOT SPRINGS    CLOUDY    63  53  70 VRB3      30.07F
6HR MIN TEMP:  56; 6HR MAX TEMP:  64; 6HR PCP: TRACE;

RUSSELLVILLE   CLOUDY    64  51  62 N6        30.06F
6HR MIN TEMP:  54; 6HR MAX TEMP:  65;

$$

ARZ036-021900-
EAST ARKANSAS

CITY           SKY/WX    TMP DP  RH WIND       PRES   REMARKS
WEST MEMPHIS   CLOUDY    62  57  83 N9        30.02R
6HR MIN TEMP:  57; 6HR MAX TEMP:  64; 6HR PCP:  0.47;

$$

ARZ050-053-066-070-073-021900-
SOUTHWEST ARKANSAS

CITY           SKY/WX    TMP DP  RH WIND       PRES   REMARKS
ARKADELPHIA    LGT RAIN  61  61 100 VRB3      30.05F
6HR MIN TEMP:  57; 6HR MAX TEMP:  62; 6HR PCP:  0.02;

CAMDEN         LGT RAIN  59  55  88 N3        30.07S
TEXARKANA      CLOUDY    63  55  75 VRB7      30.05F
6HR MIN TEMP:  58; 6HR MAX TEMP:  63; 6HR PCP:  0.01;

EL DORADO      CLOUDY    60  58  92 N8        30.04F
6HR MIN TEMP:  56; 6HR MAX TEMP:  60; 6HR PCP:  0.20;

DE QUEEN       CLOUDY    64  55  72 VRB3      30.06F
6HR MIN TEMP:  56; 6HR MAX TEMP:  64; 6HR PCP: TRACE;

$$

ARZ056-057-069-021900-
SOUTHEAST ARKANSAS

CITY           SKY/WX    TMP DP  RH WIND       PRES   REMARKS
PINE BLUFF     CLOUDY    62  55  77 N5        30.07F
6HR MIN TEMP:  55; 6HR MAX TEMP:  63; 6HR PCP:  0.07;

STUTTGART      CLOUDY    63  54  72 N7        30.05F
6HR MIN TEMP:  55; 6HR MAX TEMP:  64; 6HR PCP:  0.05;

MONTICELLO     CLOUDY    62  58  86 VRB3      30.04F
6HR MIN TEMP:  57; 6HR MAX TEMP:  62; 6HR PCP:  0.17;


$$






USA.gov is the U.S. government's official web portal to all federal, state and local government web resources and services.